Home   Weather   United Kingdom   Reading   Past weeks
Flag for United Kingdom

Past Weather in Reading, England, United Kingdom — Yesterday and Last 2 Weeks

Currently: 48 °F. Overcast. (Weather station: Benson, United Kingdom). See more current weather

Past Weather in Reading — Graph

°F

Reading Temperature Yesterday

Maximum temperature yesterday: 52 °F (at 10:20 am)
Minimum temperature yesterday: 46 °F (at 7:20 am)
Average temperature yesterday: 50 °F

High & Low Weather Summary for the Past Weeks

 TemperatureHumidityPressure
High54 °F (Jan 31, 12:50 pm)100% (Jan 21, 3:50 am)30.72 "Hg (Jan 21, 3:50 am)
Low14 °F (Jan 22, 6:50 am)54% (Jan 31, 2:20 pm)29.92 "Hg (Jan 19, 10:50 pm)
Average37 °F87%30.41 "Hg
* Reported Jan 19 10:50 pm — Feb 3 10:50 pm, Reading. Weather by CustomWeather, © 2023

Note: Actual official high and low records may vary slightly from our data, if they occured in-between our weather recording intervals... More about our weather records

Reading Weather History for the Previous 24 Hours

Scroll right to see more
 ConditionsComfort  
Time TempWeatherWind HumidityBarometerVisibility
10:50 pm
Fri, Feb 3
48 °FOvercast.6 mph87%30.57 "HgN/A
10:20 pm48 °FOvercast.6 mph87%30.57 "HgN/A
9:50 pm50 °FOvercast.6 mph82%30.54 "HgN/A
9:20 pm50 °FOvercast.5 mph82%30.54 "HgN/A
8:50 pm50 °FOvercast.2 mph82%30.54 "HgN/A
8:20 pm50 °FOvercast.7 mph82%30.54 "HgN/A
7:50 pm50 °FOvercast.6 mph88%30.54 "HgN/A
7:20 pm48 °FOvercast.5 mph87%30.54 "HgN/A
6:50 pm50 °FOvercast.5 mph82%30.54 "HgN/A
6:20 pm50 °FOvercast.7 mph82%30.51 "HgN/A
5:50 pm52 °FOvercast.6 mph82%30.51 "HgN/A
5:20 pm52 °FOvercast.6 mph77%30.51 "HgN/A
4:50 pm52 °FOvercast.3 mph77%30.51 "HgN/A
3:50 pm52 °FOvercast.7 mph77%30.48 "HgN/A
3:20 pm52 °FOvercast.8 mph77%30.48 "HgN/A
2:20 pm52 °FPartly sunny.9 mph77%30.48 "HgN/A
1:50 pm52 °FPartly sunny.8 mph77%30.48 "HgN/A
1:20 pm52 °FPartly sunny.10 mph77%30.48 "HgN/A
12:50 pm52 °FPartly sunny.9 mph82%30.48 "HgN/A
12:20 pm52 °FPartly sunny.9 mph82%30.48 "HgN/A
11:50 am52 °FPartly sunny.12 mph82%30.48 "HgN/A
11:20 am52 °FPartly sunny.9 mph82%30.48 "HgN/A
10:50 am52 °FPartly sunny.10 mph77%30.45 "HgN/A
10:20 am52 °FPartly sunny.10 mph77%30.45 "HgN/A
9:50 am50 °FPartly sunny.10 mph82%30.42 "HgN/A
9:20 am50 °FPartly sunny.6 mph82%30.42 "HgN/A
8:50 am48 °FPartly sunny.9 mph87%30.42 "HgN/A
8:20 am46 °FPartly sunny.7 mph93%30.42 "HgN/A
7:50 am46 °FCool.3 mph87%30.42 "HgN/A
7:20 am46 °FCool.8 mph93%30.39 "HgN/A
6:50 am48 °FPassing clouds.10 mph87%30.39 "HgN/A
5:50 am48 °FPassing clouds.10 mph87%30.39 "HgN/A
5:20 am48 °FOvercast.10 mph87%30.39 "HgN/A
4:50 am48 °FOvercast.10 mph87%30.36 "HgN/A
4:20 am50 °FOvercast.14 mph82%30.36 "HgN/A
3:50 am50 °FOvercast.12 mph82%30.36 "HgN/A
3:20 am50 °FOvercast.12 mph82%30.36 "HgN/A
2:50 am50 °FOvercast.12 mph82%30.36 "HgN/A
2:20 am50 °FOvercast.13 mph82%30.36 "HgN/A
1:20 am50 °FOvercast.12 mph82%30.36 "HgN/A
12:50 am50 °FMostly cloudy.12 mph82%30.36 "HgN/A
Weather by CustomWeather, © 2023

See weather overview